Location: N�rnberg
(49.4489°N, 11.0797°E)
Time: 08:32:58
(UTC+01:00)

ISS - Pass Details

Date: 11 January 2018
Orbit: 402 x 406 km, 51.6° (Epoch: 16 January)

Event Time Altitude Azimuth Distance (km) Brightness Sun altitude
Exits shadow 07:15:03 10° 274° (W) 1,443 -1.6 -8.5°
Maximum altitude 07:17:48 26° 216° (SW) 833 -2.4 -8.1°
Drops below altitude 10° 07:20:36 10° 157° (SSE) 1,460 -0.2 -7.7°
Sets 07:22:52 0° 144° (SE) 2,317 1.2 -7.3°
